Lid_Strength_Index
0 2 2 3 11 11 14 12 9 10 9 6 5 7 8 7 9 12 2 0 0 0 -0 -1 -2 -2 -1 -1 -2 -2 -2 -2 -2 -1 -2 -1 -1 -1 -2 -2 -2 -1 -1 -1 -1 -1 -1 -1 -1
1 1 2 6 13 16 15 10 11 8 6 5 5 6 7 9 5 4 3 0 -0 -0 -0 -0 -2 -1 -2 -2 -2 -2 -2 -2 -2 -2 -1 -1 -2 -2 -2 -2 -2 -2 -2 -2 -1 -1 -1 -1 -1
1 1 7 10 13 16 15 10 9 6 5 5 6 5 6 7 4 3 1 0 -0 -0 -0 -0 -2 -2 -2 -2 -2 -2 -2 -2 -2 -2 -2 -2 -2 -2 -2 -2 -2 -2 -2 -2 -2 -1 -1 -1 -2
2 4 6 12 14 11 11 8 6 6 5 5 6 8 5 3 3 2 0 0 0 -0 -0 -1 -2 -2 -2 -2 -2 -2 -2 -2 -2 -1 -2 -2 -2 -2 -2 -1 -1 -1 -1 -1 -1 -1 -1 -1 -1
2 6 11 13 12 9 8 7 5 6 6 6 6 8 7 3 1 1 1 0 0 1 0 -0 -2 -2 -2 -2 -2 -2 -2 -1 -2 -1 -1 -2 -2 -2 -2 -1 -1 -1 -1 -1 -1 -1 -1 -1 -1
7 7 13 14 12 9 7 6 5 6 5 6 7 7 7 2 2 1 1 0 0 1 1 -0 -2 -2 -2 -2 -2 -2 -2 -2 -2 -2 -2 -2 -2 -2 -2 -2 -1 -0 -1 -1 -1 -1 -0 -1 -2
8 10 12 10 10 9 7 5 6 6 6 6 5 8 6 4 2 1 1 0 0 1 1 0 -0 -1 -2 -2 -2 -2 -2 -2 -2 -1 -1 -1 -1 -2 -2 -2 -1 -1 -0 -1 -1 -1 -2 -2 -2
6 8 10 9 10 9 6 5 5 5 6 4 4 8 8 4 1 1 1 1 1 2 2 1 0 -0 0 0 -2 -2 -2 -2 -2 -2 -1 -1 -1 -2 -2 -2 -2 -1 -1 -1 -1 -2 -2 -2 -2
4 10 12 11 9 8 6 7 4 4 5 4 4 5 4 2 1 2 2 2 2 2 2 1 1 1 0 1 -1 -2 -2 -2 -2 -2 -2 -2 1 1 -1 -2 -2 -2 -1 -1 -1 -2 -2 -2 -2
8 12 11 7 6 8 6 6 5 6 6 6 5 4 3 2 3 3 3 3 2 2 3 2 1 2 2 0 0 0 -0 1 0 -0 0 1 1 1 -1 -2 -3 -2 -2 -2 -2 -2 -2 -1 1
7 10 7 7 5 5 6 6 5 6 8 6 7 5 4 3 3 3 3 3 3 2 2 1 2 2 2 1 1 1 0 1 1 0 0 1 0 1 0 1 0 1 -1 0 -1 -0 0 1 1
8 6 6 6 5 5 6 5 6 6 6 4 4 4 4 4 4 3 3 3 2 3 3 2 1 2 2 1 1 0 -0 0 -0 0 0 1 1 1 0 1 1 1 1 1 1 1 1 1 1
8 6 5 5 5 5 5 6 6 7 4 4 3 4 4 4 4 3 3 3 2 3 3 3 2 3 2 2 1 1 1 1 1 1 0 0 1 0 0 0 0 0 0 1 1 1 1 1 1
6 6 6 5 5 5 6 6 6 6 4 4 4 4 4 4 4 3 3 3 3 2 3 3 3 2 2 2 1 1 1 1 1 1 1 1 1 1 1 1 1 1 0 1 1 2 2 2 1
6 8 7 6 6 6 6 8 8 5 4 5 5 5 4 4 3 3 3 3 3 2 2 2 2 1 2 2 1 1 1 0 0 0 1 1 1 1 1 1 1 0 0 1 0 0 1 1 0
7 8 10 7 6 6 6 11 7 5 5 6 5 5 5 4 4 3 2 2 2 2 2 1 1 1 1 2 1 1 1 1 1 1 1 0 0 0 1 1 1 1 1 1 1 1 1 2 1
9 12 11 9 6 7 8 10 7 5 6 7 6 6 6 5 4 3 2 3 2 2 2 2 1 2 1 0 0 0 1 1 1 1 1 0 0 -0 0 1 1 1 1 0 1 1 1 1 2
12 11 10 10 8 8 9 9 8 7 7 7 7 6 6 5 5 3 2 2 2 2 1 1 1 1 2 1 0 0 1 0 0 1 1 0 0 -0 1 1 1 1 1 1 1 1 1 1 1
8 10 10 8 6 9 9 10 9 8 7 8 7 7 6 5 4 3 2 2 2 2 2 1 2 1 1 1 2 2 2 1 1 1 0 1 1 1 2 2 2 2 2 2 2 2 2 2 2
8 10 10 8 7 8 9 11 8 7 8 7 7 7 6 5 5 4 3 2 2 2 2 1 1 1 2 1 1 1 1 1 0 1 1 1 1 1 2 2 3 3 3 2 2 2 3 2 1
9 10 10 10 8 7 9 12 11 8 7 7 6 6 5 6 5 5 4 3 3 2 2 2 3 3 2 1 2 2 1 1 1 1 2 1 0 1 0 1 1 1 1 2 2 2 2 3 3
11 7 8 8 10 14 9 16 13 10 9 7 7 6 6 5 4 5 4 4 3 3 2 2 4 4 4 2 2 2 2 3 2 2 1 2 1 0 -0 1 1 1 1 3 2 1 1 2 3
9 7 8 8 11 12 13 15 14 10 10 8 7 6 6 5 5 5 4 3 3 3 2 3 4 4 4 2 2 1 2 2 2 1 1 2 2 2 2 1 1 2 1 2 2 2 2 2 3
6 8 9 10 12 16 14 14 15 13 10 9 7 6 6 6 5 4 3 3 3 3 2 2 2 3 2 2 2 2 2 2 2 2 2 2 2 1 1 -0 1 0 2 2 2 2 2 3 3
8 11 15 16 16 17 12 15 15 10 8 7 7 7 6 5 5 5 5 4 3 3 2 3 2 2 3 1 1 1 2 2 2 3 3 3 2 2 1 1 1 0 1 1 1 2 2 2 3
9 11 16 21 20 17 13 18 14 8 7 6 6 6 6 6 5 5 4 4 4 3 3 2 2 3 2 3 3 2 2 1 1 2 3 3 2 1 0 0 1 1 1 1 1 2 2 2 2
10 13 10 15 14 17 16 13 10 8 8 6 7 6 7 6 5 5 4 4 4 5 3 3 4 3 3 3 3 1 1 1 2 3 2 1 1 1 1 1 1 1 1 1 2 2 2 2 2
9 8 14 15 19 20 17 17 16 11 9 8 8 8 7 6 5 5 4 5 4 3 2 2 3 3 3 1 1 2 3 3 3 2 1 1 2 2 2 1 1 1 0 1 1 2 1 2 2
11 13 13 13 15 19 20 18 11 11 9 8 7 7 7 6 5 5 4 3 3 3 3 3 3 3 3 3 3 3 3 3 3 3 4 4 3 3 2 2 1 1 1 1 1 3 2 2 2
8 11 12 16 18 16 15 17 9 9 8 7 7 6 6 6 5 5 4 4 5 5 4 3 4 4 4 4 4 4 4 4 3 4 3 2 2 1 1 1 1 1 1 2 2 2 1 2 2